Regional Weather Roundup
Issued by NWS

Home | Current Version | Previous Version | Graphics & Text | Print | Product List | Glossary Off
Versions: 1 2 3 4 5 6 7 8 9 10 11 12 13 14 15 16 17 18 19 20 21 22 23 24 25 26 27 28 29 30 31 32 33 34 35 36 37 38 39 40 41 42 43 44 45 46 47 48 49 50

000
ASUS43 KMKX 050821
RWRWI

WISCONSIN REGIONAL WEATHER ROUNDUP
NATIONAL WEATHER SERVICE MILWAUKEE/SULLIVAN WI
200 AM CST MON DEC 05 2016

NOTE: "FAIR" INDICATES FEW OR NO CLOUDS BELOW 12,000 FEET WITH NO
SIGNIFICANT WEATHER AND/OR OBSTRUCTIONS TO VISIBILITY.

WIZ001-002-006>008-014>016-023>028-050900-
NORTHWEST WISCONSIN

CITY           SKY/WX    TMP DP  RH WIND       PRES   REMARKS
SUPERIOR ARPT  CLOUDY    34  29  83 W9        29.73R WCI  26
ASHLAND        CLOUDY    34  29  82 W10       29.72R WCI  26
HAYWARD        CLOUDY    34  29  82 SW8       29.74R WCI  27
SIREN          CLOUDY    34  30  86 SW7       29.77R WCI  28
CUMBERLAND     MOCLDY    32  28  86 W7        29.77R WCI  26
RICE LAKE      CLOUDY    33  29  85 SW7       29.79R WCI  27
CHETEK         CLOUDY    32  30  90 SW3       29.78R
LADYSMITH      CLOUDY    34  31  88 SW8       29.78R WCI  27
EAU CLAIRE     CLEAR     32  30  92 SW6       29.80R WCI  26
MENOMONIE      CLEAR     32  30  93 S5        29.81R WCI  27
NEW RICHMOND   CLEAR     30  29  96 SW6       29.80R WCI  24
OSCEOLA        CLEAR     31  30  97 SW6       29.82R WCI  25
$$

WIZ003>005-009-010-017-018-050900-
NORTH CENTRAL WISCONSIN

CITY           SKY/WX    TMP DP  RH WIND       PRES   REMARKS
MANITOWISH WTR LGT SNOW  31  31 100 W7        29.69R WCI  24
ARBOR VITAE    CLOUDY    34  32  92 W10G18    29.70R WCI  26
WOODRUFF       CLOUDY    34  32  92 W10G18    29.70R WCI  26
RHINELANDER    MIX PCPN  33  31  92 W13       29.72R WCI  24
EAGLE RIVER    CLOUDY    32  32 100 SW8       29.69R FOG     WCI  25
LAND O LAKES   CLOUDY    32  32 100 SW6       29.70R FOG     WCI  26
PHILLIPS       CLOUDY    31  30  94 SW8       29.73R WCI  24
TOMAHAWK       CLOUDY    32  28  86 W9        29.74R WCI  24
MEDFORD        CLOUDY    32  29  88 W12G18    29.76R WCI  23
MERRILL        CLOUDY    33  31  94 W9G18     29.76R WCI  25
$$

WIZ029-030-035-036-043>047-050900-
CENTRAL WISCONSIN

CITY           SKY/WX    TMP DP  RH WIND       PRES   REMARKS
WAUSAU         CLOUDY    33  30  88 W10       29.76R WCI  25
MOSINEE        CLOUDY    32  32 100 SW13      29.79R WCI  22
MARSHFIELD     CLOUDY    33  31  92 W9        29.79R WCI  25
STEVENS POINT  CLOUDY    32  32 100 SW8       29.81R WCI  25
WAUPACA        CLOUDY    35  32  90 CALM      29.83R
WAUTOMA        CLOUDY    34  32  93 SW10      29.86R WCI  26
WISC RAPIDS    CLOUDY    33  33 100 SW8       29.83R WCI  26
CAMP DOUGLAS   CLOUDY    35  32  90 SW12      29.85R WCI  26
$$

WIZ011>013-019>022-031-037>040-048>050-050900-
NORTHEAST WISCONSIN

CITY           SKY/WX    TMP DP  RH WIND       PRES   REMARKS
ANTIGO         CLOUDY    32  31  94 W10       29.74R WCI  24
SHAWANO        CLOUDY    34  32  93 CALM      29.79R
OCONTO         CLOUDY    32  31  96 SW6       29.80R WCI  26
STURGEON BAY   CLOUDY    33  31  92 SW10      29.79R WCI  25
GREEN BAY      CLOUDY    35  32  88 SW8       29.82R WCI  29
MANITOWOC      MOCLDY    33  31  92 SW8       29.84R WCI  26
APPLETON       CLOUDY    32  32 100 SW10      29.81R WCI  24
CLINTONVILLE   CLOUDY    32  32 100 SW7       29.80R WCI  26
OSHKOSH        CLOUDY    34  31  88 SW8       29.84R WCI  27
$$

WIZ032>034-041-042-053>061-050900-
SOUTHWEST WISCONSIN

CITY           SKY/WX    TMP DP  RH WIND       PRES   REMARKS
LA CROSSE      CLOUDY    36  33  89 SW9       29.87R WCI  29
SPARTA         CLOUDY    34  33  96 SW5       29.86R WCI  30
VIROQUA        CLOUDY    32  32 100 SW13      29.86S WCI  23
BOSCOBEL       CLOUDY    35  33  92 SW6       29.91R WCI  30
PRAIRIE DU CHI CLOUDY    35  32  90 SW3       29.91R FOG
PLATTEVILLE    CLOUDY    33  33 100 SW8       29.92R WCI  26
$$

WIZ056-057-062-063-064-067-068-050900-
SOUTH CENTRAL WISCONSIN

CITY           SKY/WX    TMP DP  RH WIND       PRES   REMARKS
REEDSBURG      CLOUDY    32  32 100 SW10      29.88R WCI  24
BARABOO/DELLS  CLOUDY    32  31  97 W10G17    29.87R FOG     WCI  24
LONE ROCK      CLOUDY    34  31  88 W8        29.91R WCI  27
MINERAL POINT  FOG       34  34 100 SW7       29.90R VSB 3/4 WCI  28
MADISON        CLOUDY    33  30  88 W8        29.89R WCI  26
MIDDLETON      CLOUDY    34  33  95 W12G18    29.90R WCI  26
WATERTOWN      CLOUDY    33  32  99 SW7       29.89S WCI  26
MONROE         CLOUDY    32  32 100 SW15      29.91S FOG     WCI  22
JANESVILLE     CLOUDY    34  32  93 W9        29.92S WCI  26
$$

WIZ051-052-058>065-066-070>072-050900-
SOUTHEAST WISCONSIN

CITY           SKY/WX    TMP DP  RH WIND       PRES   REMARKS
MILWAUKEE      CLOUDY    34  30  85 W9        29.91R WCI  27
WAUKESHA       CLOUDY    32  30  93 W7        29.91R WCI  26
MILWAUKEE/TIMM CLOUDY    32  30  93 W8        29.91R WCI  25
RACINE         CLOUDY    33  30  88 W8        29.93R WCI  26
BURLINGTON     CLOUDY    32  31  96 CALM      29.92R
KENOSHA        CLOUDY    33  30  88 W13       29.92R WCI  24
FOND DU LAC    CLOUDY    34  29  82 SW9       29.86R WCI  27
SHEBOYGAN      CLOUDY    34  30  85 W13       29.86R WCI  25
WEST BEND      CLOUDY    32  32 100 W7        29.88R WCI  26
JUNEAU         CLOUDY    32  30  93 SW13      29.89R WCI  22
$$

LSZ147-162-050900-
LAKE SUPERIOR

STATION/POSITION TIME  TEMP    WIND        PRES    WAVE
                       AIR SEA DIR/SP/G            HT/PER
                 (UTC) (F)     (DEG/KT/KT) (MB)    (FT/S)
DEVILS ISLAND    0800   36     250/ 25/ 29 1005.5R
PORT WING        0740   35     230/ 11/ 15 1006.1R
SAXON HARBOR     0740   36     220/  5/ 12 1006.1R
$$

LMZ867-665-643>646-050900-
LAKE MICHIGAN

STATION/POSITION TIME  TEMP    WIND        PRES    WAVE
                       AIR SEA DIR/SP/G            HT/PER
                 (UTC) (F)     (DEG/KT/KT) (MB)    (FT/S)
CHAMBERS ISLAND  0740   34     210/  9/ 14 1007.8S
NORTHPORT PIER   0740   34     240/  4/ 12 1008.1R
SISTER BAY       0738   36     300/ 23/ 28   N/A
ALGOMA LAKESHORE 0751          260/  9/ 13   N/A
KEWAUNEE LAKESHO 0754   33     240/  5/ 11 1009.4R
SHEBOYGAN LAKESH 0800   34     240/ 12/ 15 1011.6R
PORT WASHINGTON  0740   34     260/  9/ 14 1012.5S
MILWAUKEE LAKESH 0800   35     260/ 11/ 15   N/A
KENOSHA   LAKESH 0800   34     250/  9/ 15 1013.5
$$

TC  - TEMPERATURE IN CELSIUS
VSB - VISIBILITY IN STATUTE MILES
WCI - WIND CHILL INDEX
HX  - HEAT INDEX




USA.gov is the U.S. government's official web portal to all federal, state and local government web resources and services.